Miscellaneous Local Product
Issued by NWS North Platte, NE

Home | Current Version | Previous Version | Text Only | Print | Product List | Glossary On
Versions: 1 2 3 4 5 6 7 8 9 10 11 12 13 14 15 16 17 18 19 20 21 22 23 24 25 26 27 28 29 30 31 32 33 34 35 36 37 38 39 40 41 42 43 44 45 46 47 48 49 50
000
AXUS43 KLBF 300110
MISLBF


WESTERN AND NORTH CENTRAL NEBRASKA HOURLY WEATHER ROUNDUP
NATIONAL WEATHER SERVICE NORTH PLATTE NE
800 PM CDT THU SEP 29 2016

NOTE: "FAIR" INDICATES FEW OR NO CLOUDS BELOW 12,000 FEET WITH NO
SIGNIFICANT WEATHER AND/OR OBSTRUCTIONS TO VISIBILITY.

NOTE: STATIONS NOT REPORTING VARIABLES SUCH AS SKY/WEATHER OR
PRESSURE ARE PROVIDED BY RAWS AND APRS NETWORKS AND ARE NOT UNDER
NATIONAL WEATHER SERVICE QUALITY CONTROL.

...OBSERVATIONS IN AND NEAR THE EASTERN PANHANDLE OF NEBRASKA...

CITY           SKY/WX    TMP DP  RH WIND       PRES   REMARKS
PINE RIDGE     CLEAR     71  42  35 S9        30.21R
CHADRON        CLEAR     73  41  31 SE17      30.17F
ALLIANCE       CLEAR     63  43  48 SE10      30.24F
SIDNEY         CLEAR     67  43  41 SE16      30.26S
CRESCENT LAKE    N/A     64  42  45 SE6G14      N/A
$$

...OBSERVATIONS IN NORTHERN NEBRASKA AND FAR SOUTHERN SOUTH DAKOTA...

CITY           SKY/WX    TMP DP  RH WIND       PRES   REMARKS
WINNER         FAIR      57  45  64 SE9       30.28F
VALENTINE      CLEAR     64  38  38 SE12      30.27S
THEDFORD       CLEAR     60  41  49 SE7       30.30S
AINSWORTH      CLEAR     58  44  58 SE9       30.30S
O`NEILL        CLEAR     59  43  55 SE6       30.33S
ORD            CLEAR     60  43  53 SE5       30.32S
BROKEN BOW     CLEAR     58  43  57 SE8       30.31S
VALENTINE NWR    N/A     66  39  37 SE8G16      N/A
BUTTE            N/A     57  46  67 E6          N/A
HALSEY           N/A     65  39  39 SE7G15      N/A
EWING            N/A     55  46  73 CALM        N/A
$$

...OBSERVATIONS IN SOUTHWEST NEBRASKA AND FAR NORTHEAST COLORADO...

CITY           SKY/WX    TMP DP  RH WIND       PRES   REMARKS
WRAY           FAIR      68  41  37 SE13G18   30.27R
HOLYOKE        FAIR      66  41  39 SE9       30.27S
IMPERIAL       CLEAR     63  40  42 SE13      30.27F
OGALLALA       CLEAR     66  40  38 SE8       30.27F
NORTH PLATTE   CLEAR     59  41  51 SE6       30.29S
MCCOOK         CLEAR     60  42  51 SE8       30.29F
LEXINGTON      CLEAR     60  42  52 SE6       30.31F
STAPLETON        N/A     58  42  55 CALM        N/A
GOTHENBURG       N/A     66  40  39 SE3         N/A
CALLAWAY         N/A     64  43  47 SE6         N/A
$$

...OBSERVATIONS IN CENTRAL LINCOLN COUNTY AREA...

CITY           SKY/WX    TMP DP  RH WIND       PRES   REMARKS
N.P. AIRPORT   CLEAR     59  41  51 SE6       30.29S
N.P. DOWNTOWN    N/A     64  43  47 CALM        N/A
N.P. SOUTHEAST   N/A     62  41  46 CALM        N/A
N.P. HILLCREST   N/A     62  41  46 SE6         N/A
$$

...SOME OBSERVATIONS FROM AROUND THE REGION...

CITY           SKY/WX    TMP DP  RH WIND       PRES   REMARKS
DENVER         PTCLDY    72  40  31 W6        30.23R
LARAMIE        CLOUDY    60  44  55 N12       30.38R
CHEYENNE       CLOUDY    69  37  30 E5        30.29S
SCOTTSBLUFF    CLEAR     69  44  40 SE16      30.20S
RAPID CITY     CLEAR     68  45  43 S9        30.17S
BISMARCK       CLEAR     58  45  62 SE12      30.25S
PIERRE         CLEAR     62  44  51 SE10      30.24S
SIOUX FALLS    CLEAR     58  48  69 E3        30.34S
OMAHA          CLEAR     61  50  67 CALM      30.32S
GRAND ISLAND   CLEAR     58  46  64 E5        30.33F
KANSAS CITY    CLEAR     61  46  57 N8        30.29R
WICHITA        PTCLDY    65  49  56 N7        30.29S
OKLAHOMA CITY  MOCLDY    66  47  50 N7        30.27S
DALLAS         PTCLDY    69  48  47 N7        30.21S
AMARILLO       CLEAR     64  47  53 SE10      30.32S
DODGE CITY     PTCLDY    58  40  51 SE7       30.31S
HAYS           CLEAR     59  39  47 E8        30.32S
GOODLAND       CLEAR     63  41  44 SE9       30.28S
$$




USA.gov is the U.S. government's official web portal to all federal, state and local government web resources and services.